{"data":{"norad_id":56455,"epoch":"2026-05-25T04:12:28.848096Z","epoch_age_seconds":63837,"freshness":"FRESH","line1":"1 56455U 23064H   26145.17533389  .00000094  00000+0  15633-4 0  9991","line2":"2 56455  69.9990 311.5746 0002867 267.4533  92.6297 14.98330830166703","mean_motion":14.9833083,"eccentricity":0.0002867,"inclination_deg":69.999,"raan_deg":311.5746,"arg_perigee_deg":267.4533,"mean_anomaly_deg":92.6297,"bstar":1.5633e-5,"rev_number":16670,"period_min":96.106945887244,"perigee_km":570.06070467311,"apogee_km":574.04594380503,"semimajor_km":6950.1903242391,"source":"CELESTRAK","updated_at":"2026-05-25T13:38:18.067394Z"}}